Location: Caltech
(34.1382°N, 118.1253°W)
Time: 02:52:28
(UTC-07:00)

ADEOS II - Visible Passes

Search period start: 24 May 2016 00:00
Search period end: 03 June 2016 00:00
Orbit: 799 x 802 km, 98.3° (Epoch: 23 May)

Date Brightness Start Highest point End Pass type
(mag) Time Alt. Az. Time Alt. Az. Time Alt. Az.
24 May 3.9 04:39:32 10° NE 04:44:06 30° E 04:48:39 10° SSE visible
25 May 4.7 04:14:24 10° NE 04:17:35 16° E 04:20:46 10° SE visible
27 May 3.1 04:59:51 10° NNE 05:04:57 48° E 05:10:00 10° S visible
28 May 4.1 04:34:07 10° NE 04:38:30 26° E 04:42:52 10° SSE visible
29 May 4.7 04:09:13 10° ENE 04:11:58 14° E 04:14:43 10° SE visible
31 May 3.3 04:54:21 10° NNE 04:59:21 43° E 05:04:20 10° S visible
01 Jun 4.3 04:28:44 10° NE 04:32:54 24° E 04:37:03 10° SSE visible
02 Jun 4.8 04:04:11 10° ENE 04:06:21 12° E 04:08:31 10° ESE visible
